EW5040 Weather Reports


time (UTC)temp
C
wind
direction
speed
KPH
gust
KPH
rain 1hr
cm
rain 24hr
cm
rain mn
cm
humidity
%
barometer
mb
20260509224546 13 329 11.3 37.0 0.10 0.10 0.10 85 1005.7
20260509223045 14 142 4.8 8.0 0.03 0.03 0.03 82 1003.3
20260509221543 15 190 4.8 9.7 0.00 0.00 0.00 77 1002.9
20260509220045 15 219 1.6 3.2 0.00 0.00 0.00 78 1002.4
20260509214540 15 219 1.6 4.8 0.00 0.00 0.00 77 1002.6
20260509213039 15 196 0.0 8.0 0.00 0.00 0.00 76 1002.8
20260509211545 15 206 3.2 8.0 0.00 0.00 0.00 75 1002.7
20260509210039 15 244 4.8 11.3 0.00 0.00 0.00 74 1003.1
20260509204535 16 242 3.2 9.7 0.00 0.00 0.00 73 1003.4
20260509203034 16 246 1.6 17.7 0.00 0.00 0.00 74 1003.4
20260509201533 16 217 4.8 14.5 0.00 0.00 0.00 71 1003.4
20260509200034 16 196 9.7 16.1 0.00 0.00 0.00 68 1003.6
20260509194531 17 176 8.0 24.1 0.00 0.00 0.00 68 1003.7
20260509193028 17 164 8.0 20.9 0.00 0.00 0.00 70 1003.7
20260509191526 17 193 6.4 19.3 0.00 0.00 0.00 70 1004.2
20260509190024 17 176 8.0 25.7 0.00 0.00 0.00 69 1004.4
20260509184532 17 205 6.4 22.5 0.00 0.00 0.00 71 1004.5
20260509183020 17 230 11.3 20.9 0.00 0.00 0.00 71 1004.8
20260509181517 17 219 4.8 19.3 0.00 0.00 0.00 74 1004.6
20260509180020 17 126 8.0 25.7 0.00 0.00 0.00 73 1004.9
20260509174514 16 245 8.0 24.1 0.00 0.00 0.00 74 1005.0
20260509173012 16 246 8.0 20.9 0.00 0.00 0.00 73 1005.3
20260509171511 16 188 4.8 24.1 0.00 0.00 0.00 77 1005.6
20260509170006 16 182 8.0 20.9 0.00 0.00 0.00 76 1005.6
20260509164503 16 203 8.0 19.3 0.00 0.00 0.00 77 1005.7
20260509163001 15 252 3.2 14.5 0.00 0.00 0.00 77 1005.9
20260509161603 15 186 6.4 22.5 0.00 0.00 0.00 77 1006.1
20260509160100 15 207 1.6 19.3 0.00 0.00 0.00 78 1006.0
20260509154558 15 206 8.0 17.7 0.00 0.03 0.00 78 1006.1
20260509153059 15 242 8.0 16.1 0.00 0.03 0.00 75 1006.3
20260509151557 16 187 6.4 16.1 0.00 0.03 0.00 77 1006.2
20260509150054 15 154 9.7 16.1 0.00 0.03 0.00 78 1006.2
20260509144547 14 198 4.8 11.3 0.00 0.03 0.00 80 1006.2
20260509143050 14 195 3.2 14.5 0.00 0.03 0.00 83 1006.3
20260509141544 13 162 4.8 12.9 0.00 0.03 0.00 84 1006.3
20260509140046 12 143 8.0 12.9 0.00 0.03 0.00 85 1006.6
20260509134533 12 219 0.0 11.3 0.00 0.03 0.00 86 1006.7
20260509133032 12 160 4.8 14.5 0.00 0.03 0.00 86 1006.7
20260509131536 12 167 4.8 12.9 0.00 0.03 0.00 87 1006.7
20260509130026 11 153 3.2 16.1 0.00 0.03 0.00 90 1006.8
20260509124526 11 159 4.8 11.3 0.00 0.03 0.00 92 1006.9
20260509123025 10 175 6.4 12.9 0.00 0.03 0.00 95 1007.0
20260509121517 10 121 4.8 12.9 0.00 0.03 0.00 97 1007.1
20260509120013 10 200 1.6 9.7 0.00 0.03 0.00 97 1007.1
20260509114508 9 139 3.2 12.9 0.00 0.08 0.00 97 1007.1
20260509113006 8 182 1.6 8.0 0.00 0.08 0.00 97 1007.1
20260509111504 8 142 1.6 4.8 0.00 0.08 0.00 97 1007.0
20260509110100 8 188 1.6 8.0 0.00 0.08 0.00 97 1007.1
20260509104559 7 148 1.6 8.0 0.00 0.13 0.00 97 1007.3
20260509103058 6 173 1.6 6.4 0.00 0.13 0.00 97 1007.2
20260509101548 6 184 0.0 9.7 0.00 0.13 0.00 97 1007.2
20260509100104 5 140 0.0 6.4 0.00 0.13 0.00 97 1007.3
20260509094548 5 153 0.0 8.0 0.00 0.13 0.00 96 1007.2
20260509093043 5 156 0.0 1.6 0.00 0.13 0.00 96 1007.2
20260509091541 5 156 0.0 3.2 0.00 0.13 0.00 96 1007.2
20260509090036 4 156 0.0 3.2 0.00 0.13 0.00 96 1007.2
20260509084534 4 156 0.0 0.0 0.00 0.13 0.00 96 1007.3
20260509083041 4 156 0.0 1.6 0.00 0.13 0.00 95 1007.4
20260509081534 4 156 0.0 1.6 0.00 0.13 0.00 95 1007.5
20260509080033 3 156 0.0 1.6 0.00 0.13 0.00 95 1007.5
20260509074527 3 156 0.0 1.6 0.00 0.13 0.00 95 1007.6
20260509073026 3 156 0.0 0.0 0.00 0.13 0.00 95 1007.8
20260509071524 3 156 0.0 1.6 0.00 0.13 0.00 95 1007.9
20260509070022 3 156 0.0 3.2 0.00 0.13 0.00 94 1008.1
20260509064528 3 156 0.0 0.0 0.00 0.13 0.00 94 1008.1
20260509063018 3 156 0.0 3.2 0.00 0.13 0.00 94 1008.3
20260509061532 3 156 0.0 1.6 0.00 0.13 0.00 93 1008.6
20260509060013 3 156 0.0 1.6 0.00 0.13 0.00 93 1008.6
20260509054510 3 156 0.0 0.0 0.00 0.13 0.00 93 1008.9
20260509053023 3 156 0.0 1.6 0.00 0.13 0.00 93 1009.1
20260509051508 3 156 0.0 0.0 0.00 0.13 0.00 93 1009.3
20260509050009 3 156 0.0 3.2 0.00 0.13 0.00 93 1009.3
20260509044504 3 156 0.0 0.0 0.00 0.13 0.00 92 1009.6
20260509043004 3 156 0.0 0.0 0.00 0.13 0.00 92 1009.6
20260509041501 3 156 0.0 3.2 0.00 0.13 0.00 91 1009.7
20260509040100 3 156 0.0 0.0 0.00 0.13 0.00 89 1009.8
20260509034603 3 156 0.0 0.0 0.00 0.13 0.13 89 1009.9
20260509033057 3 156 0.0 0.0 0.00 0.13 0.13 87 1010.1
20260509031557 4 156 0.0 0.0 0.00 0.13 0.13 86 1010.2
20260509030057 4 156 0.0 0.0 0.00 0.13 0.13 86 1010.3
20260509024556 5 156 0.0 0.0 0.00 0.13 0.13 85 1010.4
20260509023055 5 156 0.0 0.0 0.00 0.13 0.13 83 1010.4
20260509021556 5 156 0.0 0.0 0.00 0.13 0.13 83 1010.4
20260509020055 6 156 0.0 0.0 0.00 0.13 0.13 82 1010.3
20260509014554 6 156 0.0 0.0 0.00 0.13 0.13 80 1010.1
20260509013054 7 156 0.0 0.0 0.00 0.13 0.13 78 1010.0
20260509011554 7 156 0.0 0.0 0.00 0.13 0.13 75 1009.8
20260509010052 8 156 0.0 1.6 0.00 0.13 0.13 73 1010.0
20260509004550 8 156 0.0 0.0 0.00 0.13 0.13 69 1009.8
20260509003049 9 156 0.0 1.6 0.00 0.13 0.13 66 1009.8
20260509001547 10 156 0.0 3.2 0.00 0.13 0.13 61 1009.8
20260509000045 10 156 1.6 9.7 0.00 0.13 0.13 57 1009.7
20260508234547 10 142 0.0 4.8 0.00 0.13 0.13 56 1009.6
20260508233045 10 140 1.6 6.4 0.00 0.13 0.13 53 1009.6
20260508231604 11 140 0.0 6.4 0.00 0.13 0.13 47 1009.6
20260508230056 11 177 3.2 11.3 0.00 0.13 0.13 44 1009.6